TimeEDT,TemperatureF,Dew PointF,Humidity,Sea Level PressureIn,VisibilityMPH,Wind Direction,Wind SpeedMPH,Gust SpeedMPH,PrecipitationIn,Events,Conditions,WindDirDegrees,DateUTC
12:15 AM,57.2,48.2,72,29.80,10.0,NW,4.6,-,N/A,,Clear,320,2013-06-13 04:15:00
12:35 AM,57.2,48.2,72,29.80,10.0,NW,5.8,-,N/A,,Clear,310,2013-06-13 04:35:00
12:54 AM,55.4,48.2,77,29.79,10.0,NW,5.8,-,N/A,,Clear,320,2013-06-13 04:54:00
1:15 AM,55.4,48.2,77,29.79,10.0,NW,6.9,-,N/A,,Clear,320,2013-06-13 05:15:00
1:35 AM,53.6,48.2,82,29.79,10.0,NW,5.8,-,N/A,,Clear,320,2013-06-13 05:35:00
1:54 AM,51.8,48.2,88,29.80,10.0,NNW,5.8,-,N/A,,Clear,330,2013-06-13 05:54:00
2:15 AM,51.8,48.2,88,29.80,10.0,NNW,4.6,-,N/A,,Clear,330,2013-06-13 06:15:00
2:34 AM,51.8,48.2,88,29.80,10.0,NW,4.6,-,N/A,,Clear,320,2013-06-13 06:34:00
2:54 AM,51.8,48.2,88,29.81,10.0,NW,5.8,-,N/A,,Clear,320,2013-06-13 06:54:00
3:15 AM,50.0,46.4,87,29.81,10.0,NNW,6.9,-,N/A,,Clear,330,2013-06-13 07:15:00
3:34 AM,48.2,46.4,93,29.81,10.0,NNW,8.1,-,N/A,,Clear,330,2013-06-13 07:34:00
3:55 AM,48.2,46.4,93,29.80,10.0,NNW,8.1,-,N/A,,Clear,330,2013-06-13 07:55:00
4:15 AM,48.2,46.4,93,29.80,10.0,NW,6.9,-,N/A,,Clear,320,2013-06-13 08:15:00
4:34 AM,48.2,46.4,93,29.81,10.0,NW,6.9,-,N/A,,Clear,320,2013-06-13 08:34:00
4:55 AM,48.2,46.4,93,29.81,10.0,NW,4.6,-,N/A,,Clear,320,2013-06-13 08:55:00
5:15 AM,48.2,46.4,93,29.82,10.0,NNW,4.6,-,N/A,,Clear,330,2013-06-13 09:15:00
5:34 AM,48.2,46.4,93,29.82,10.0,NNW,4.6,-,N/A,,Clear,340,2013-06-13 09:34:00
5:55 AM,48.2,46.4,93,29.83,10.0,NW,8.1,-,N/A,,Clear,320,2013-06-13 09:55:00
6:15 AM,48.2,46.4,93,29.83,10.0,NW,6.9,-,N/A,,Clear,320,2013-06-13 10:15:00
6:34 AM,48.2,46.4,93,29.84,10.0,NNW,9.2,-,N/A,,Mostly Cloudy,330,2013-06-13 10:34:00
6:55 AM,50.0,48.2,94,29.85,10.0,NNW,9.2,-,N/A,,Overcast,330,2013-06-13 10:55:00
7:14 AM,51.8,50.0,94,29.85,10.0,NNW,5.8,-,N/A,,Overcast,340,2013-06-13 11:14:00
7:35 AM,51.8,50.0,94,29.86,10.0,NNW,10.4,-,N/A,,Overcast,330,2013-06-13 11:35:00
7:54 AM,53.6,51.8,94,29.87,10.0,NNW,9.2,16.1,N/A,,Overcast,330,2013-06-13 11:54:00
8:14 AM,53.6,51.8,94,29.88,10.0,NNW,9.2,-,N/A,,Overcast,330,2013-06-13 12:14:00
8:35 AM,55.4,51.8,88,29.89,10.0,NW,8.1,-,N/A,,Overcast,320,2013-06-13 12:35:00
8:54 AM,55.4,51.8,88,29.89,10.0,NNW,9.2,-,N/A,,Overcast,330,2013-06-13 12:54:00
9:15 AM,55.4,51.8,88,29.89,10.0,NNW,9.2,16.1,N/A,,Overcast,330,2013-06-13 13:15:00
9:35 AM,57.2,53.6,88,29.89,10.0,NNW,8.1,-,N/A,,Overcast,330,2013-06-13 13:35:00
9:54 AM,57.2,53.6,88,29.90,10.0,NW,9.2,-,N/A,,Mostly Cloudy,320,2013-06-13 13:54:00
10:15 AM,59.0,53.6,82,29.91,10.0,NNW,10.4,16.1,N/A,,Mostly Cloudy,330,2013-06-13 14:15:00
10:34 AM,60.8,53.6,77,29.91,10.0,NNW,12.7,16.1,N/A,,Mostly Cloudy,330,2013-06-13 14:34:00
10:54 AM,60.8,53.6,77,29.91,10.0,NNW,10.4,20.7,N/A,,Overcast,330,2013-06-13 14:54:00
11:15 AM,60.8,53.6,77,29.92,10.0,North,11.5,18.4,N/A,,Overcast,350,2013-06-13 15:15:00
11:34 AM,62.6,55.4,77,29.92,10.0,NNW,11.5,18.4,N/A,,Overcast,330,2013-06-13 15:34:00
11:55 AM,62.6,55.4,77,29.93,10.0,North,8.1,16.1,N/A,,Overcast,360,2013-06-13 15:55:00
12:14 PM,64.4,55.4,73,29.94,10.0,North,10.4,19.6,N/A,,Overcast,350,2013-06-13 16:14:00
12:35 PM,64.4,55.4,73,29.94,10.0,NNW,11.5,21.9,N/A,,Mostly Cloudy,330,2013-06-13 16:35:00
12:54 PM,64.4,55.4,73,29.95,10.0,NNW,9.2,20.7,N/A,,Mostly Cloudy,330,2013-06-13 16:54:00
1:15 PM,64.4,55.4,73,29.95,10.0,NNW,10.4,20.7,N/A,,Overcast,330,2013-06-13 17:15:00
1:35 PM,64.4,53.6,68,29.96,10.0,NNW,9.2,18.4,N/A,,Overcast,330,2013-06-13 17:35:00
1:54 PM,62.6,53.6,72,29.96,10.0,NNW,11.5,20.7,N/A,,Overcast,330,2013-06-13 17:54:00
2:14 PM,62.6,53.6,72,29.97,10.0,NNW,11.5,20.7,N/A,,Overcast,340,2013-06-13 18:14:00
2:34 PM,62.6,53.6,72,29.97,10.0,WNW,12.7,17.3,N/A,,Overcast,290,2013-06-13 18:34:00
2:54 PM,62.6,53.6,72,29.97,10.0,NNW,11.5,18.4,N/A,,Scattered Clouds,340,2013-06-13 18:54:00
3:15 PM,62.6,53.6,72,29.98,10.0,NW,16.1,20.7,N/A,,Scattered Clouds,310,2013-06-13 19:15:00
3:34 PM,64.4,53.6,68,29.98,10.0,NNW,12.7,-,N/A,,Mostly Cloudy,340,2013-06-13 19:34:00
3:55 PM,64.4,53.6,68,29.98,10.0,NW,13.8,21.9,N/A,,Scattered Clouds,320,2013-06-13 19:55:00
4:15 PM,62.6,53.6,72,29.99,10.0,NW,13.8,19.6,N/A,,Mostly Cloudy,320,2013-06-13 20:15:00
4:34 PM,64.4,53.6,68,30.00,10.0,NNW,9.2,23.0,N/A,,Mostly Cloudy,330,2013-06-13 20:34:00
4:55 PM,64.4,53.6,68,30.00,10.0,North,16.1,25.3,N/A,,Scattered Clouds,350,2013-06-13 20:55:00
5:15 PM,64.4,51.8,64,30.00,10.0,NNW,16.1,21.9,N/A,,Clear,340,2013-06-13 21:15:00
5:34 PM,64.4,51.8,64,30.00,10.0,NW,15.0,20.7,N/A,,Clear,320,2013-06-13 21:34:00
5:55 PM,64.4,51.8,64,30.01,10.0,NNW,11.5,20.7,N/A,,Clear,330,2013-06-13 21:55:00
6:14 PM,64.4,51.8,64,30.02,10.0,NNW,10.4,21.9,N/A,,Clear,330,2013-06-13 22:14:00
6:34 PM,62.6,51.8,68,30.02,10.0,NNW,16.1,23.0,N/A,,Clear,330,2013-06-13 22:34:00
6:55 PM,62.6,50.0,63,30.03,10.0,North,11.5,21.9,N/A,,Clear,350,2013-06-13 22:55:00
7:14 PM,62.6,50.0,63,30.03,10.0,North,13.8,-,N/A,,Clear,350,2013-06-13 23:14:00
7:34 PM,62.6,50.0,63,30.04,10.0,NNW,6.9,19.6,N/A,,Clear,340,2013-06-13 23:34:00
7:55 PM,60.8,50.0,68,30.05,10.0,NNW,8.1,-,N/A,,Clear,340,2013-06-13 23:55:00
8:14 PM,60.8,48.2,63,30.05,10.0,NNW,6.9,-,N/A,,Clear,330,2013-06-14 00:14:00
8:35 PM,59.0,48.2,67,30.06,10.0,NW,8.1,17.3,N/A,,Clear,320,2013-06-14 00:35:00
8:55 PM,57.2,46.4,67,30.06,10.0,NW,5.8,-,N/A,,Clear,320,2013-06-14 00:55:00
9:14 PM,57.2,46.4,67,30.06,10.0,NNW,8.1,-,N/A,,Clear,330,2013-06-14 01:14:00
9:35 PM,55.4,46.4,72,30.06,10.0,NW,6.9,-,N/A,,Clear,310,2013-06-14 01:35:00
9:55 PM,53.6,46.4,77,30.06,10.0,NW,6.9,-,N/A,,Clear,310,2013-06-14 01:55:00
10:14 PM,53.6,46.4,77,30.07,10.0,NW,8.1,-,N/A,,Clear,310,2013-06-14 02:14:00
10:35 PM,51.8,46.4,82,30.06,10.0,NW,6.9,-,N/A,,Clear,320,2013-06-14 02:35:00
10:54 PM,51.8,44.6,76,30.06,10.0,NW,8.1,-,N/A,,Clear,320,2013-06-14 02:54:00
11:14 PM,50.0,44.6,82,30.07,10.0,NW,5.8,-,N/A,,Clear,320,2013-06-14 03:14:00
11:35 PM,48.2,44.6,87,30.08,10.0,NW,6.9,-,N/A,,Clear,320,2013-06-14 03:35:00
11:54 PM,48.2,42.8,82,30.08,10.0,NW,6.9,-,N/A,,Clear,320,2013-06-14 03:54:00